contact:dominique.lefevre@mio.osupytheas.fr, maurice.libes@osupytheas.fr, didier.mallarino@osupytheas.fr
Project:EMSO http://www.emso-fr.org/EMSO-France
Depth: 2436.0 m
Title:EMSO Ligure Ouest : Data MII capteur AQUADOPP
Date,Latitude,Longitude,X_East,Y_North,Z_Up,Amplitude_X,Amplitude_Y,Amplitude_Z,Batterie,SoundSpeed,Heading,Pitch,Roll,Pressure,TIS,Speed,Direction
, degrees North, degrees East, m.s-1, m.s-1,m.s-1, 1, 1, 1, Volt, m.s-1, degree, degree, degree, dbar, degree_C, m.s-1, degree
2020-11-28T00:04:03,42.805,6.029,0.07,-0.016,-0.005,102.0,110.0,100.0,13.4,1505.2,327.6,-0.8,1.8,2470.464,13.3,0.071,102.9
2020-11-28T00:07:03,42.805,6.029,0.074,-0.01,-0.036,103.0,114.0,100.0,13.4,1505.3,325.4,-0.7,1.8,2470.455,13.31,0.074,97.7
2020-11-28T00:10:03,42.805,6.029,0.047,-0.007,0.015,100.0,114.0,101.0,13.3,1505.3,323.7,-0.7,1.9,2470.421,13.31,0.047,98.5
2020-11-28T00:13:03,42.805,6.029,0.085,-0.022,0.015,103.0,112.0,100.0,13.4,1505.3,326.8,-0.7,1.8,2470.438,13.31,0.087,104.5
2020-11-28T00:16:03,42.805,6.029,0.069,0.013,0.018,102.0,115.0,99.0,13.3,1505.3,324.7,-0.7,1.9,2470.396,13.31,0.07,79.3
2020-11-28T00:19:03,42.805,6.029,0.027,-0.011,-0.016,103.0,113.0,100.0,13.4,1505.3,325.8,-0.7,1.9,2470.445,13.32,0.029,112.2
2020-11-28T00:22:03,42.805,6.029,0.06,-0.002,0.003,102.0,114.0,100.0,13.4,1505.3,325.7,-0.7,1.8,2470.426,13.32,0.06,91.9
2020-11-28T00:25:03,42.805,6.029,0.067,-0.008,0.003,103.0,114.0,99.0,13.4,1505.3,324.0,-0.7,1.8,2470.428,13.32,0.067,96.8
2020-11-28T00:28:03,42.805,6.029,0.057,0.001,-0.007,104.0,111.0,100.0,13.4,1505.3,325.7,-0.7,1.8,2470.422,13.32,0.057,89.0
2020-11-28T00:31:03,42.805,6.029,0.057,-0.003,0.007,103.0,112.0,100.0,13.3,1505.3,327.9,-0.7,1.8,2470.427,13.32,0.057,93.0
2020-11-28T00:34:03,42.805,6.029,0.067,-0.015,-0.029,103.0,112.0,100.0,13.4,1505.3,324.6,-0.7,1.8,2470.442,13.32,0.068,102.6
2020-11-28T00:37:03,42.805,6.029,0.074,-0.007,-0.01,101.0,114.0,100.0,13.4,1505.3,328.3,-0.7,1.8,2470.433,13.32,0.074,95.4
2020-11-28T00:40:03,42.805,6.029,0.079,-0.001,0.002,102.0,115.0,100.0,13.3,1505.3,326.3,-0.7,1.8,2470.416,13.32,0.079,90.7
2020-11-28T00:43:03,42.805,6.029,0.065,-0.012,-0.008,102.0,110.0,100.0,13.3,1505.3,327.2,-0.7,1.8,2470.43,13.32,0.066,100.5
2020-11-28T00:46:03,42.805,6.029,0.045,-0.026,-0.006,102.0,114.0,100.0,13.4,1505.3,326.3,-0.7,1.8,2470.453,13.32,0.051,120.0
2020-11-28T00:49:03,42.805,6.029,0.08,0.0,-0.008,101.0,114.0,100.0,13.3,1505.3,328.1,-0.7,1.8,2470.433,13.32,0.079,90.0
2020-11-28T00:52:03,42.805,6.029,0.056,-0.007,-0.022,102.0,113.0,100.0,13.4,1505.3,324.9,-0.7,1.8,2470.402,13.32,0.056,97.1
2020-11-28T00:55:03,42.805,6.029,0.05,-0.001,0.011,102.0,112.0,100.0,13.4,1505.3,327.1,-0.7,1.9,2470.431,13.32,0.05,91.1
2020-11-28T00:58:03,42.805,6.029,0.073,-0.008,0.016,103.0,111.0,101.0,13.3,1505.3,322.8,-0.7,1.9,2470.452,13.32,0.073,96.3
2020-11-28T01:04:03,42.805,6.029,0.083,-0.003,-0.003,103.0,113.0,101.0,13.4,1505.2,324.4,-0.7,1.8,2470.487,13.3,0.083,92.1
2020-11-28T01:07:03,42.805,6.029,0.082,-0.016,-0.006,102.0,109.0,100.0,13.3,1505.3,326.7,-0.7,1.8,2470.453,13.31,0.083,101.0
2020-11-28T01:10:03,42.805,6.029,0.037,0.008,-0.009,102.0,113.0,100.0,13.4,1505.3,324.1,-0.7,1.8,2470.476,13.31,0.037,77.8
2020-11-28T01:13:03,42.805,6.029,0.039,0.024,-0.001,101.0,117.0,101.0,13.4,1505.3,323.0,-0.7,1.8,2470.433,13.31,0.045,58.4
2020-11-28T01:16:03,42.805,6.029,0.056,0.005,0.002,103.0,111.0,101.0,13.4,1505.3,323.5,-0.7,1.8,2470.418,13.31,0.056,84.9
2020-11-28T01:19:03,42.805,6.029,0.071,0.008,-0.018,101.0,112.0,100.0,13.3,1505.3,327.2,-0.7,1.8,2470.445,13.32,0.071,83.6
2020-11-28T01:22:03,42.805,6.029,0.056,0.013,0.009,100.0,112.0,100.0,13.3,1505.3,327.6,-0.7,1.8,2470.471,13.32,0.057,76.9
2020-11-28T01:25:03,42.805,6.029,0.039,-0.017,-0.002,101.0,114.0,100.0,13.4,1505.3,324.8,-0.7,1.8,2470.474,13.32,0.042,113.5
2020-11-28T01:28:03,42.805,6.029,0.052,0.001,0.001,102.0,112.0,100.0,13.4,1505.3,325.2,-0.7,1.8,2470.447,13.32,0.052,88.9
2020-11-28T01:31:03,42.805,6.029,0.07,-0.001,0.002,101.0,111.0,100.0,13.3,1505.3,327.8,-0.7,1.8,2470.444,13.32,0.07,90.8
2020-11-28T01:34:03,42.805,6.029,0.048,0.002,0.0,102.0,112.0,100.0,13.4,1505.3,327.0,-0.7,1.8,2470.472,13.32,0.048,87.6
2020-11-28T01:37:03,42.805,6.029,0.067,-0.008,0.015,102.0,113.0,101.0,13.4,1505.3,325.9,-0.7,1.8,2470.471,13.32,0.067,96.8
2020-11-28T01:40:03,42.805,6.029,0.051,-0.02,-0.03,101.0,114.0,100.0,13.4,1505.3,325.4,-0.7,1.8,2470.505,13.32,0.054,111.4
2020-11-28T01:43:03,42.805,6.029,0.064,-0.016,-0.003,102.0,112.0,101.0,13.4,1505.3,326.4,-0.7,1.8,2470.499,13.32,0.065,104.0
2020-11-28T01:46:03,42.805,6.029,0.053,-0.016,-0.017,102.0,114.0,99.0,13.4,1505.3,323.6,-0.7,1.8,2470.458,13.32,0.055,106.8
2020-11-28T01:49:03,42.805,6.029,0.079,-0.009,0.009,102.0,112.0,100.0,13.3,1505.3,326.5,-0.7,1.9,2470.489,13.32,0.079,96.5
2020-11-28T01:52:03,42.805,6.029,0.075,0.004,-0.019,103.0,112.0,99.0,13.4,1505.3,325.6,-0.7,1.8,2470.434,13.32,0.075,87.0
2020-11-28T01:55:03,42.805,6.029,0.072,0.004,0.005,102.0,108.0,100.0,13.4,1505.3,328.2,-0.7,1.8,2470.448,13.32,0.072,86.8
2020-11-28T01:58:03,42.805,6.029,0.074,0.003,-0.019,101.0,113.0,99.0,13.4,1505.3,326.5,-0.7,1.9,2470.458,13.32,0.074,87.7
2020-11-28T02:04:03,42.805,6.029,0.051,0.004,-0.012,101.0,115.0,100.0,13.4,1505.2,322.7,-0.7,1.8,2470.508,13.3,0.051,85.5
2020-11-28T02:07:03,42.805,6.029,0.074,0.006,-0.008,102.0,111.0,100.0,13.4,1505.3,327.4,-0.7,1.8,2470.479,13.31,0.074,85.4
2020-11-28T02:10:03,42.805,6.029,0.058,-0.019,-0.001,103.0,112.0,101.0,13.4,1505.3,328.1,-0.7,1.8,2470.461,13.31,0.061,108.1
2020-11-28T02:13:03,42.805,6.029,0.065,0.003,0.016,102.0,111.0,99.0,13.4,1505.3,324.6,-0.7,1.9,2470.508,13.31,0.065,87.4
2020-11-28T02:16:03,42.805,6.029,0.062,0.027,0.017,102.0,113.0,99.0,13.3,1505.3,323.8,-0.7,1.8,2470.501,13.31,0.067,66.5
2020-11-28T02:19:03,42.805,6.029,0.062,-0.014,-0.026,102.0,110.0,100.0,13.4,1505.3,326.7,-0.7,1.8,2470.465,13.31,0.063,102.7
2020-11-28T02:22:03,42.805,6.029,0.077,-0.014,0.013,101.0,109.0,101.0,13.3,1505.3,324.5,-0.7,1.8,2470.474,13.32,0.078,100.3
2020-11-28T02:25:03,42.805,6.029,0.084,-0.021,0.035,101.0,106.0,99.0,13.3,1505.3,324.8,-0.7,1.8,2470.486,13.32,0.086,104.0
2020-11-28T02:28:03,42.805,6.029,0.048,-0.006,0.003,102.0,112.0,99.0,13.4,1505.3,326.8,-0.7,1.8,2470.475,13.32,0.048,97.1
2020-11-28T02:31:03,42.805,6.029,0.056,0.009,0.005,102.0,114.0,99.0,13.3,1505.3,323.3,-0.7,1.8,2470.518,13.32,0.056,80.9
2020-11-28T02:34:03,42.805,6.029,0.059,-0.001,-0.012,100.0,113.0,100.0,13.4,1505.3,324.7,-0.7,1.8,2470.522,13.32,0.059,91.0
2020-11-28T02:37:03,42.805,6.029,0.092,-0.021,0.0,102.0,111.0,100.0,13.3,1505.3,325.8,-0.7,1.9,2470.49,13.32,0.094,102.9
2020-11-28T02:40:03,42.805,6.029,0.051,-0.006,-0.028,103.0,113.0,99.0,13.4,1505.3,326.8,-0.7,1.8,2470.478,13.32,0.051,96.7
2020-11-28T02:43:03,42.805,6.029,0.072,-0.018,0.007,101.0,110.0,100.0,13.4,1505.3,324.0,-0.7,1.8,2470.522,13.32,0.074,104.0
2020-11-28T02:46:03,42.805,6.029,0.077,-0.023,-0.012,102.0,112.0,99.0,13.3,1505.3,324.5,-0.7,1.8,2470.494,13.32,0.08,106.6
2020-11-28T02:49:03,42.805,6.029,0.057,-0.008,0.027,103.0,108.0,99.0,13.4,1505.3,327.0,-0.7,1.8,2470.501,13.32,0.057,98.0
2020-11-28T02:52:03,42.805,6.029,0.065,-0.006,0.002,101.0,111.0,101.0,13.4,1505.3,327.1,-0.7,1.8,2470.521,13.32,0.065,95.3
2020-11-28T02:55:03,42.805,6.029,0.078,-0.014,-0.008,102.0,108.0,100.0,13.4,1505.3,327.9,-0.7,1.8,2470.511,13.32,0.079,100.2
2020-11-28T02:58:03,42.805,6.029,0.043,-0.008,0.017,101.0,112.0,100.0,13.4,1505.3,324.5,-0.7,1.8,2470.508,13.32,0.043,100.5
2020-11-28T03:04:03,42.805,6.029,0.08,-0.02,-0.025,102.0,107.0,100.0,13.4,1505.2,324.5,-0.8,1.8,2470.543,13.3,0.082,104.0
2020-11-28T03:07:03,42.805,6.029,0.078,-0.026,-0.017,102.0,112.0,100.0,13.4,1505.3,324.3,-0.7,1.8,2470.534,13.31,0.082,108.4
2020-11-28T03:10:03,42.805,6.029,0.078,-0.005,0.027,101.0,106.0,100.0,13.4,1505.3,324.2,-0.7,1.8,2470.548,13.31,0.078,93.7
2020-11-28T03:13:03,42.805,6.029,0.065,-0.002,0.044,103.0,110.0,100.0,13.3,1505.3,326.5,-0.7,1.8,2470.539,13.31,0.065,91.8
2020-11-28T03:16:03,42.805,6.029,0.063,0.0,0.024,103.0,106.0,100.0,13.4,1505.3,323.5,-0.7,1.8,2470.532,13.31,0.062,90.0
2020-11-28T03:19:03,42.805,6.029,0.048,0.014,-0.003,102.0,109.0,101.0,13.4,1505.3,324.1,-0.7,1.8,2470.522,13.32,0.05,73.7
2020-11-28T03:22:03,42.805,6.029,0.062,-0.001,0.009,102.0,110.0,100.0,13.3,1505.3,326.9,-0.7,1.8,2470.518,13.32,0.062,90.9
2020-11-28T03:25:03,42.805,6.029,0.085,-0.004,-0.011,102.0,107.0,100.0,13.4,1505.3,326.5,-0.7,1.8,2470.514,13.32,0.085,92.7
2020-11-28T03:28:03,42.805,6.029,0.08,-0.024,-0.009,101.0,105.0,100.0,13.4,1505.3,326.8,-0.7,1.8,2470.537,13.32,0.083,106.7
2020-11-28T03:31:03,42.805,6.029,0.09,-0.006,0.005,102.0,111.0,100.0,13.3,1505.3,326.5,-0.7,1.8,2470.549,13.32,0.09,93.8
2020-11-28T03:34:03,42.805,6.029,0.086,-0.011,0.003,102.0,107.0,100.0,13.4,1505.3,325.0,-0.7,1.8,2470.55,13.32,0.086,97.3
2020-11-28T03:37:03,42.805,6.029,0.085,0.002,0.046,104.0,109.0,99.0,13.4,1505.3,323.2,-0.7,1.8,2470.56,13.32,0.085,88.7
2020-11-28T03:40:03,42.805,6.029,0.083,-0.019,0.021,102.0,105.0,100.0,13.4,1505.3,325.7,-0.7,1.8,2470.487,13.32,0.085,102.9
2020-11-28T03:43:03,42.805,6.029,0.057,-0.008,-0.008,102.0,111.0,99.0,13.4,1505.3,322.8,-0.7,1.8,2470.511,13.32,0.057,98.0
2020-11-28T03:46:03,42.805,6.029,0.082,-0.012,0.005,102.0,107.0,99.0,13.4,1505.3,324.1,-0.7,1.8,2470.552,13.32,0.082,98.3
2020-11-28T03:49:03,42.805,6.029,0.06,0.006,0.004,101.0,111.0,100.0,13.3,1505.3,323.7,-0.7,1.8,2470.604,13.32,0.06,84.3
2020-11-28T03:52:03,42.805,6.029,0.092,-0.005,0.008,102.0,105.0,100.0,13.3,1505.3,326.4,-0.7,1.8,2470.54,13.32,0.092,93.1
2020-11-28T03:55:03,42.805,6.029,0.083,-0.002,0.031,101.0,106.0,100.0,13.4,1505.3,324.4,-0.7,1.8,2470.52,13.32,0.083,91.4
2020-11-28T03:58:03,42.805,6.029,0.058,0.005,0.027,101.0,106.0,100.0,13.4,1505.3,326.2,-0.7,1.8,2470.547,13.32,0.058,85.1
2020-11-28T04:04:03,42.805,6.029,0.058,-0.006,0.01,102.0,107.0,101.0,13.4,1505.2,324.2,-0.7,1.8,2470.558,13.3,0.058,95.9
2020-11-28T04:07:03,42.805,6.029,0.081,-0.022,0.018,102.0,108.0,99.0,13.3,1505.3,328.1,-0.7,1.8,2470.589,13.31,0.083,105.2
2020-11-28T04:10:03,42.805,6.029,0.091,-0.013,0.023,101.0,106.0,100.0,13.4,1505.3,323.9,-0.7,1.8,2470.576,13.31,0.091,98.1
2020-11-28T04:13:03,42.805,6.029,0.071,-0.032,0.038,103.0,107.0,99.0,13.3,1505.3,326.3,-0.7,1.8,2470.552,13.31,0.077,114.3
2020-11-28T04:16:03,42.805,6.029,0.07,0.01,0.019,102.0,107.0,99.0,13.4,1505.3,324.8,-0.7,1.8,2470.578,13.31,0.07,81.9
2020-11-28T04:19:03,42.805,6.029,0.074,-0.019,0.001,102.0,108.0,100.0,13.3,1505.3,326.1,-0.7,1.8,2470.587,13.31,0.076,104.4
2020-11-28T04:22:03,42.805,6.029,0.078,-0.017,0.028,102.0,106.0,100.0,13.4,1505.3,328.4,-0.7,1.8,2470.614,13.32,0.079,102.3
2020-11-28T04:25:03,42.805,6.029,0.072,-0.014,0.019,101.0,109.0,101.0,13.3,1505.3,323.0,-0.7,1.8,2470.566,13.32,0.073,101.0
2020-11-28T04:28:03,42.805,6.029,0.098,-0.034,-0.016,102.0,105.0,99.0,13.4,1505.3,323.4,-0.7,1.9,2470.574,13.32,0.103,109.1
2020-11-28T04:31:03,42.805,6.029,0.081,-0.004,0.018,101.0,104.0,101.0,13.4,1505.3,326.7,-0.7,1.8,2470.566,13.32,0.081,92.8
2020-11-28T04:34:03,42.805,6.029,0.104,-0.003,0.017,102.0,104.0,100.0,13.4,1505.3,324.7,-0.7,1.8,2470.517,13.32,0.104,91.6
2020-11-28T04:37:03,42.805,6.029,0.092,0.0,0.028,103.0,105.0,100.0,13.4,1505.3,325.3,-0.7,1.8,2470.595,13.32,0.092,90.0
2020-11-28T04:40:03,42.805,6.029,0.084,-0.002,0.027,102.0,108.0,99.0,13.4,1505.3,327.7,-0.7,1.9,2470.596,13.32,0.084,91.4
2020-11-28T04:43:03,42.805,6.029,0.086,0.002,0.003,101.0,106.0,100.0,13.4,1505.3,323.4,-0.7,1.8,2470.535,13.32,0.086,88.7
2020-11-28T04:46:03,42.805,6.029,0.1,-0.016,0.018,102.0,103.0,100.0,13.4,1505.3,326.3,-0.7,1.8,2470.592,13.32,0.101,99.1
2020-11-28T04:49:03,42.805,6.029,0.083,-0.031,-0.013,101.0,103.0,101.0,13.4,1505.3,325.9,-0.7,1.9,2470.543,13.32,0.088,110.5
2020-11-28T04:52:03,42.805,6.029,0.102,-0.009,-0.018,102.0,105.0,102.0,13.4,1505.3,326.8,-0.7,1.8,2470.605,13.32,0.102,95.0
2020-11-28T04:55:03,42.805,6.029,0.087,0.001,0.004,101.0,105.0,101.0,13.3,1505.3,327.1,-0.7,1.8,2470.58,13.32,0.087,89.3
2020-11-28T04:58:03,42.805,6.029,0.063,0.002,0.025,101.0,109.0,100.0,13.3,1505.3,326.6,-0.7,1.8,2470.576,13.32,0.063,88.2
2020-11-28T05:04:03,42.805,6.029,0.087,0.008,0.011,102.0,105.0,100.0,13.4,1505.2,323.3,-0.7,1.8,2470.633,13.3,0.087,84.7
2020-11-28T05:07:03,42.805,6.029,0.083,-0.012,0.007,103.0,107.0,101.0,13.4,1505.3,326.3,-0.7,1.9,2470.617,13.31,0.083,98.2
2020-11-28T05:10:03,42.805,6.029,0.092,0.001,0.026,102.0,105.0,100.0,13.4,1505.3,324.0,-0.7,1.8,2470.591,13.31,0.092,89.4
2020-11-28T05:13:03,42.805,6.029,0.09,0.0,0.022,102.0,105.0,101.0,13.4,1505.3,323.0,-0.7,1.8,2470.623,13.31,0.089,90.0
2020-11-28T05:16:03,42.805,6.029,0.081,-0.001,-0.021,102.0,106.0,100.0,13.4,1505.3,326.4,-0.7,1.9,2470.649,13.31,0.081,90.7
2020-11-28T05:19:03,42.805,6.029,0.094,-0.026,-0.003,102.0,104.0,100.0,13.4,1505.3,323.9,-0.7,1.8,2470.586,13.31,0.097,105.5
2020-11-28T05:22:03,42.805,6.029,0.084,-0.04,0.0,102.0,104.0,101.0,13.3,1505.3,324.7,-0.7,1.9,2470.648,13.32,0.093,115.5
2020-11-28T05:25:03,42.805,6.029,0.07,-0.019,0.003,101.0,108.0,100.0,13.4,1505.3,325.7,-0.7,1.8,2470.598,13.32,0.072,105.2
2020-11-28T05:28:03,42.805,6.029,0.073,-0.007,-0.002,103.0,106.0,100.0,13.4,1505.3,327.5,-0.7,1.8,2470.618,13.32,0.073,95.5
2020-11-28T05:31:03,42.805,6.029,0.082,-0.024,0.003,102.0,105.0,99.0,13.4,1505.3,326.9,-0.7,1.8,2470.593,13.32,0.085,106.3
2020-11-28T05:34:03,42.805,6.029,0.099,-0.027,-0.006,102.0,104.0,100.0,13.4,1505.3,328.1,-0.7,1.8,2470.591,13.32,0.102,105.3
2020-11-28T05:37:03,42.805,6.029,0.071,0.002,0.003,104.0,106.0,100.0,13.4,1505.3,326.9,-0.7,1.8,2470.579,13.32,0.071,88.4
2020-11-28T05:40:03,42.805,6.029,0.079,0.001,-0.009,103.0,105.0,99.0,13.4,1505.3,327.4,-0.7,1.8,2470.571,13.32,0.079,89.3
2020-11-28T05:43:03,42.805,6.029,0.081,-0.003,-0.007,103.0,105.0,100.0,13.4,1505.3,326.3,-0.7,1.8,2470.612,13.32,0.081,92.1
2020-11-28T05:46:03,42.805,6.029,0.083,-0.014,0.014,102.0,104.0,100.0,13.4,1505.3,326.5,-0.7,1.8,2470.602,13.32,0.084,99.6
2020-11-28T05:49:03,42.805,6.029,0.099,-0.009,0.016,103.0,106.0,99.0,13.4,1505.3,324.6,-0.7,1.8,2470.586,13.32,0.099,95.2
2020-11-28T05:52:03,42.805,6.029,0.068,0.001,0.017,102.0,106.0,100.0,13.4,1505.3,323.3,-0.7,1.8,2470.608,13.32,0.068,89.2
2020-11-28T05:55:03,42.805,6.029,0.084,-0.017,-0.002,103.0,105.0,100.0,13.3,1505.3,325.0,-0.7,1.8,2470.613,13.32,0.085,101.4
2020-11-28T05:58:03,42.805,6.029,0.077,-0.018,0.051,103.0,105.0,99.0,13.3,1505.3,324.8,-0.7,1.8,2470.591,13.32,0.079,103.2
2020-11-28T06:04:03,42.805,6.029,0.09,-0.028,0.014,101.0,104.0,100.0,13.4,1505.2,327.9,-0.7,1.8,2470.621,13.3,0.094,107.3
2020-11-28T06:07:03,42.805,6.029,0.087,-0.025,0.01,102.0,105.0,99.0,13.3,1505.3,326.0,-0.7,1.8,2470.572,13.31,0.09,106.0
2020-11-28T06:10:03,42.805,6.029,0.11,-0.023,0.003,102.0,104.0,100.0,13.4,1505.3,327.5,-0.7,1.9,2470.655,13.31,0.112,101.8
2020-11-28T06:13:03,42.805,6.029,0.099,-0.015,0.019,101.0,104.0,99.0,13.3,1505.3,324.3,-0.7,1.9,2470.622,13.31,0.1,98.6
2020-11-28T06:16:03,42.805,6.029,0.108,-0.017,0.021,102.0,105.0,100.0,13.4,1505.3,325.8,-0.7,1.8,2470.615,13.31,0.109,98.9
2020-11-28T06:19:03,42.805,6.029,0.075,-0.027,0.001,102.0,103.0,100.0,13.3,1505.3,327.3,-0.7,1.8,2470.578,13.31,0.079,109.8
2020-11-28T06:22:03,42.805,6.029,0.084,-0.014,0.022,101.0,104.0,101.0,13.3,1505.3,326.7,-0.7,1.8,2470.627,13.32,0.085,99.5
2020-11-28T06:25:03,42.805,6.029,0.066,-0.029,-0.007,103.0,104.0,99.0,13.4,1505.3,328.7,-0.7,1.9,2470.592,13.32,0.072,113.7
2020-11-28T06:28:03,42.805,6.029,0.08,-0.013,0.0,104.0,105.0,98.0,13.4,1505.3,323.4,-0.7,1.8,2470.586,13.32,0.081,99.2
2020-11-28T06:31:03,42.805,6.029,0.097,-0.019,0.016,102.0,104.0,100.0,13.3,1505.3,327.1,-0.7,1.9,2470.593,13.32,0.098,101.1
2020-11-28T06:34:03,42.805,6.029,0.109,-0.025,0.05,102.0,102.0,100.0,13.4,1505.3,326.5,-0.7,1.8,2470.624,13.32,0.111,102.9
2020-11-28T06:37:03,42.805,6.029,0.079,-0.023,0.002,103.0,105.0,101.0,13.3,1505.3,323.4,-0.7,1.8,2470.591,13.32,0.082,106.2
2020-11-28T06:40:03,42.805,6.029,0.092,-0.008,-0.003,101.0,104.0,100.0,13.3,1505.3,324.2,-0.7,1.8,2470.585,13.32,0.092,95.0
2020-11-28T06:43:03,42.805,6.029,0.074,-0.013,-0.01,103.0,105.0,100.0,13.3,1505.3,328.2,-0.7,1.8,2470.605,13.32,0.075,100.0
2020-11-28T06:46:03,42.805,6.029,0.096,-0.01,0.011,102.0,102.0,99.0,13.3,1505.3,322.9,-0.7,1.8,2470.565,13.32,0.096,95.9
2020-11-28T06:49:03,42.805,6.029,0.089,-0.034,-0.013,102.0,106.0,101.0,13.4,1505.3,326.6,-0.7,1.8,2470.616,13.32,0.095,110.9
2020-11-28T06:52:03,42.805,6.029,0.078,-0.01,-0.006,102.0,103.0,100.0,13.4,1505.3,324.8,-0.7,1.9,2470.628,13.32,0.078,97.3
2020-11-28T06:55:03,42.805,6.029,0.106,-0.007,0.034,102.0,103.0,99.0,13.3,1505.3,324.4,-0.7,1.8,2470.584,13.32,0.106,93.8
2020-11-28T06:58:03,42.805,6.029,0.064,-0.015,0.021,103.0,104.0,100.0,13.4,1505.3,325.6,-0.7,1.8,2470.562,13.32,0.065,103.2
2020-11-28T07:04:03,42.805,6.029,0.06,-0.025,-0.026,101.0,102.0,100.0,13.4,1505.2,324.4,-0.7,1.9,2470.653,13.3,0.064,112.6
2020-11-28T07:07:03,42.805,6.029,0.07,-0.032,0.003,101.0,104.0,100.0,13.3,1505.3,325.3,-0.7,1.9,2470.622,13.31,0.076,114.6
2020-11-28T07:10:03,42.805,6.029,0.098,-0.039,-0.022,102.0,103.0,100.0,13.4,1505.3,326.6,-0.7,1.8,2470.637,13.31,0.105,111.7
2020-11-28T07:13:03,42.805,6.029,0.119,-0.021,0.047,102.0,103.0,100.0,13.3,1505.3,324.8,-0.7,1.8,2470.618,13.31,0.12,100.0
2020-11-28T07:16:03,42.805,6.029,0.08,-0.029,0.014,101.0,104.0,101.0,13.4,1505.3,325.1,-0.7,1.8,2470.649,13.31,0.085,109.9
2020-11-28T07:19:03,42.805,6.029,0.104,-0.02,0.007,103.0,104.0,99.0,13.3,1505.3,324.8,-0.7,1.8,2470.626,13.31,0.105,100.9
2020-11-28T07:22:03,42.805,6.029,0.049,-0.026,0.006,102.0,105.0,99.0,13.4,1505.3,327.1,-0.7,1.8,2470.592,13.32,0.055,117.9
2020-11-28T07:25:03,42.805,6.029,0.085,-0.02,0.001,103.0,106.0,100.0,13.4,1505.3,327.5,-0.7,1.8,2470.599,13.32,0.087,103.2
2020-11-28T07:28:03,42.805,6.029,0.088,-0.038,0.0,102.0,104.0,101.0,13.4,1505.3,327.2,-0.7,1.8,2470.62,13.32,0.095,113.4
2020-11-28T07:31:03,42.805,6.029,0.068,-0.028,0.007,102.0,105.0,100.0,13.3,1505.3,325.0,-0.7,1.8,2470.553,13.32,0.073,112.4
2020-11-28T07:34:03,42.805,6.029,0.087,-0.026,0.005,102.0,102.0,101.0,13.4,1505.3,325.0,-0.7,1.8,2470.586,13.32,0.09,106.6
2020-11-28T07:37:03,42.805,6.029,0.067,-0.023,0.02,102.0,104.0,100.0,13.3,1505.3,325.6,-0.7,1.8,2470.624,13.32,0.07,108.9
2020-11-28T07:40:03,42.805,6.029,0.096,-0.024,0.015,103.0,105.0,100.0,13.3,1505.3,322.9,-0.7,1.8,2470.57,13.32,0.098,104.0
2020-11-28T07:46:03,42.805,6.029,0.083,-0.031,0.019,103.0,105.0,99.0,13.4,1505.2,325.7,-0.7,1.8,2470.629,13.3,0.088,110.5
2020-11-28T07:49:03,42.805,6.029,0.092,-0.022,0.008,102.0,104.0,99.0,13.4,1505.3,325.6,-0.7,1.8,2470.639,13.31,0.094,103.4
2020-11-28T07:52:03,42.805,6.029,0.066,-0.017,0.041,102.0,106.0,102.0,13.4,1505.3,324.0,-0.7,1.8,2470.615,13.31,0.068,104.4
2020-11-28T07:55:03,42.805,6.029,0.095,-0.035,0.037,102.0,104.0,99.0,13.3,1505.3,325.3,-0.7,1.8,2470.624,13.31,0.101,110.2
2020-11-28T07:58:03,42.805,6.029,0.084,-0.013,-0.004,103.0,104.0,101.0,13.4,1505.3,327.1,-0.7,1.9,2470.581,13.31,0.084,98.8
2020-11-28T08:04:03,42.805,6.029,0.1,-0.043,-0.008,101.0,105.0,101.0,13.4,1505.2,325.2,-0.8,1.8,2470.634,13.3,0.108,113.3
2020-11-28T08:07:03,42.805,6.029,0.093,-0.026,0.007,103.0,103.0,101.0,13.3,1505.3,325.5,-0.7,1.8,2470.62,13.31,0.096,105.6
2020-11-28T08:10:03,42.805,6.029,0.095,-0.016,0.027,103.0,102.0,100.0,13.4,1505.3,328.5,-0.7,1.8,2470.625,13.31,0.096,99.6
2020-11-28T08:13:03,42.805,6.029,0.105,-0.022,0.02,102.0,102.0,100.0,13.3,1505.3,324.3,-0.7,1.9,2470.593,13.31,0.107,101.8
2020-11-28T08:16:03,42.805,6.029,0.091,-0.044,-0.014,100.0,103.0,101.0,13.3,1505.3,324.6,-0.7,1.8,2470.62,13.31,0.101,115.8
2020-11-28T08:19:03,42.805,6.029,0.127,-0.029,0.037,101.0,103.0,99.0,13.4,1505.3,328.0,-0.7,1.8,2470.6,13.31,0.13,102.9
2020-11-28T08:22:03,42.805,6.029,0.06,-0.007,-0.028,103.0,104.0,100.0,13.4,1505.3,323.6,-0.7,1.9,2470.582,13.32,0.06,96.7
2020-11-28T08:25:03,42.805,6.029,0.096,-0.017,0.033,102.0,102.0,100.0,13.4,1505.3,325.6,-0.7,1.8,2470.599,13.32,0.097,100.0
2020-11-28T08:28:03,42.805,6.029,0.079,-0.003,0.032,101.0,103.0,100.0,13.3,1505.3,326.2,-0.7,1.9,2470.56,13.32,0.079,92.2
2020-11-28T08:31:03,42.805,6.029,0.098,-0.018,0.008,101.0,103.0,100.0,13.4,1505.3,328.3,-0.7,1.8,2470.579,13.32,0.099,100.4
2020-11-28T08:34:03,42.805,6.029,0.092,-0.023,0.032,102.0,103.0,100.0,13.4,1505.3,327.2,-0.7,1.8,2470.565,13.32,0.094,104.0
2020-11-28T08:37:03,42.805,6.029,0.047,-0.02,0.013,102.0,104.0,100.0,13.4,1505.3,324.5,-0.7,1.8,2470.587,13.32,0.051,113.0
2020-11-28T08:40:03,42.805,6.029,0.094,-0.025,0.036,102.0,104.0,100.0,13.3,1505.3,324.2,-0.7,1.8,2470.623,13.32,0.097,104.9
2020-11-28T08:43:03,42.805,6.029,0.096,-0.029,-0.013,102.0,103.0,99.0,13.3,1505.3,324.4,-0.7,1.8,2470.602,13.32,0.1,106.8
2020-11-28T08:46:03,42.805,6.029,0.074,-0.027,0.008,103.0,103.0,99.0,13.4,1505.3,325.3,-0.7,1.8,2470.563,13.32,0.078,110.0
2020-11-28T08:49:03,42.805,6.029,0.095,-0.032,0.04,102.0,103.0,100.0,13.3,1505.3,326.4,-0.7,1.8,2470.592,13.32,0.1,108.6
2020-11-28T08:52:03,42.805,6.029,0.112,-0.033,0.006,101.0,102.0,100.0,13.4,1505.3,326.3,-0.7,1.8,2470.55,13.32,0.116,106.4
2020-11-28T08:55:03,42.805,6.029,0.078,-0.029,0.025,103.0,102.0,100.0,13.3,1505.3,326.1,-0.7,1.8,2470.598,13.32,0.083,110.4
2020-11-28T08:58:03,42.805,6.029,0.092,-0.031,0.021,101.0,104.0,101.0,13.4,1505.3,325.4,-0.7,1.9,2470.581,13.32,0.097,108.6
2020-11-28T09:04:03,42.805,6.029,0.044,-0.02,-0.003,102.0,104.0,100.0,13.4,1505.2,327.8,-0.7,1.8,2470.622,13.3,0.048,114.4
2020-11-28T09:07:03,42.805,6.029,0.071,-0.03,0.017,102.0,105.0,100.0,13.4,1505.3,326.7,-0.7,1.8,2470.563,13.31,0.077,112.9
2020-11-28T09:10:03,42.805,6.029,0.103,-0.02,0.039,101.0,103.0,100.0,13.4,1505.3,324.9,-0.7,1.8,2470.579,13.31,0.104,101.0
2020-11-28T09:13:03,42.805,6.029,0.094,-0.033,0.018,101.0,105.0,99.0,13.3,1505.3,325.7,-0.7,1.8,2470.59,13.31,0.099,109.3
2020-11-28T09:19:03,42.805,6.029,0.085,-0.021,-0.002,101.0,102.0,100.0,13.4,1505.2,322.7,-0.7,1.8,2470.603,13.3,0.087,103.9
2020-11-28T09:22:03,42.805,6.029,0.106,-0.031,-0.001,102.0,102.0,99.0,13.4,1505.2,323.7,-0.7,1.8,2470.567,13.3,0.11,106.3
2020-11-28T09:25:03,42.805,6.029,0.088,-0.032,0.043,102.0,102.0,100.0,13.4,1505.3,323.1,-0.7,1.8,2470.561,13.31,0.093,110.0
2020-11-28T09:28:03,42.805,6.029,0.076,-0.026,0.024,103.0,104.0,99.0,13.3,1505.3,322.9,-0.7,1.8,2470.59,13.31,0.08,108.9
2020-11-28T09:31:03,42.805,6.029,0.091,-0.031,-0.009,101.0,103.0,101.0,13.4,1505.3,326.2,-0.7,1.8,2470.569,13.31,0.096,108.8
2020-11-28T09:34:03,42.805,6.029,0.094,-0.028,0.002,101.0,102.0,100.0,13.4,1505.3,327.8,-0.7,1.8,2470.53,13.31,0.098,106.6
2020-11-28T09:37:03,42.805,6.029,0.078,-0.03,0.009,101.0,102.0,99.0,13.4,1505.3,324.9,-0.7,1.8,2470.552,13.32,0.083,111.0
2020-11-28T09:40:03,42.805,6.029,0.103,-0.021,0.017,102.0,102.0,100.0,13.4,1505.3,326.1,-0.7,1.8,2470.528,13.32,0.105,101.5
2020-11-28T09:43:03,42.805,6.029,0.066,-0.045,0.015,102.0,103.0,100.0,13.4,1505.3,326.9,-0.7,1.8,2470.543,13.32,0.079,124.3
2020-11-28T09:46:03,42.805,6.029,0.092,-0.022,0.008,102.0,104.0,100.0,13.4,1505.3,325.5,-0.7,1.8,2470.567,13.32,0.094,103.4
2020-11-28T09:49:03,42.805,6.029,0.089,-0.043,0.019,102.0,104.0,100.0,13.4,1505.3,326.5,-0.7,1.8,2470.544,13.32,0.098,115.8
2020-11-28T09:52:03,42.805,6.029,0.103,-0.024,0.013,103.0,103.0,100.0,13.3,1505.3,327.9,-0.7,1.8,2470.549,13.32,0.105,103.1
2020-11-28T09:55:03,42.805,6.029,0.09,-0.023,0.019,102.0,103.0,100.0,13.3,1505.3,324.9,-0.7,1.8,2470.54,13.32,0.092,104.3
2020-11-28T09:58:03,42.805,6.029,0.099,-0.042,0.013,101.0,103.0,99.0,13.4,1505.3,325.5,-0.7,1.8,2470.555,13.32,0.107,113.0
2020-11-28T10:04:03,42.805,6.029,0.095,-0.021,0.014,102.0,102.0,100.0,13.3,1505.2,325.7,-0.7,1.8,2470.547,13.3,0.097,102.5
2020-11-28T10:07:03,42.805,6.029,0.102,-0.044,0.015,102.0,103.0,100.0,13.4,1505.3,327.8,-0.7,1.8,2470.53,13.31,0.111,113.3
2020-11-28T10:10:03,42.805,6.029,0.099,-0.027,0.007,101.0,102.0,101.0,13.3,1505.3,326.4,-0.7,1.8,2470.541,13.31,0.102,105.3